Regional Weather Roundup
Issued by NWS

Home | Current Version | Previous Version | Text Only | Print | Product List | Glossary On
Versions: 1 2 3 4 5 6 7 8 9 10 11 12 13 14 15 16 17 18 19 20 21 22 23 24 25 26 27 28 29 30 31 32 33 34 35 36 37 38 39 40 41 42 43 44 45 46 47 48
000
ASUS42 KFFC 090803
RWRGA
WEATHER ROUNDUP FOR GEORGIA
NATIONAL WEATHER SERVICE PEACHTREE CITY GA
300 AM EST TUE FEB 09 2016

NOTE: "FAIR" INDICATES FEW OR NO CLOUDS BELOW 12,000 FEET WITH NO
SIGNIFICANT WEATHER AND/OR OBSTRUCTIONS TO VISIBILITY.

* = USE WITH CAUTION. THE STATIONS MARKED WITH AN ASTERISK MAY NOT
REPORT WEATHER SUCH AS PRECIPITATION, FOG, OR THUNDER AND ARE NOT
QUALITY CONTROLLED BY NWS.

THE REMARK "TC" DENOTES TEMPERATURE READING IN DEGREES CELSIUS.

GAZ001>058-090900-
NORTH GEORGIA

CITY           SKY/WX    TMP DP  RH WIND       PRES   REMARKS
ATLANTA        CLOUDY    36  23  59 W17G23    29.80S WCI  26
ATHENS         CLOUDY    35  23  61 W6        29.77F WCI  30
CHAMBLEE       CLOUDY    35  24  64 W14G21    29.79S WCI  26
PEACHTREE CITY CLOUDY    37  22  54 W6        29.82F WCI  32
ROME           CLOUDY    34  21  59 NW9       29.82F WCI  27
WEST ATLANTA   CLOUDY    36  21  54 NW16G30   29.81S WCI  26
GAINESVILLE    CLOUDY    32  20  61 W15G21    29.76F WCI  22
CARTERSVILLE   CLOUDY    35  21  56 VRB3      29.83S


CITY           SKY/WX    TMP DP  RH WIND       PRES   REMARKS
MARIETTA       CLOUDY    35  21  58 NW17G28   29.79S WCI  24
BLAIRSVILLE*     N/A     29   2  30 NW6       29.73S WCI  23
$$

GAZ059>098-102>109-090900-
CENTRAL GEORGIA

CITY           SKY/WX    TMP DP  RH WIND       PRES   REMARKS
AUGUSTA-BUSH   CLEAR     39  22  50 NW15      29.79S WCI  31
AUGUSTA-DANIEL CLEAR     39  21  48 W9        29.79S WCI  33
COLUMBUS       CLOUDY    37  21  52 W10       29.88F WCI  30
MACON          PTCLDY    35  22  58 W6        29.85F WCI  30
ROBINS AFB     PTCLDY    38  19  48 W8        29.84F WCI  32


CITY           SKY/WX    TMP DP  RH WIND       PRES   REMARKS
LAGRANGE*      CLOUDY    41  29  62 W8        29.84F
SYLVANIA*      PTCLDY    38  33  80 W9        29.81S WCI  32
MILLEDGEVILLE* CLOUDY    39  23  52 W5        29.82F
$$

GAZ099>101-110>166-090900-
SOUTH GEORGIA

CITY           SKY/WX    TMP DP  RH WIND       PRES   REMARKS
SAVANNAH       CLEAR     39  32  76 W9        29.83R WCI  33
VALDOSTA       CLEAR     43  22  43 NW5       29.93S
ALMA           CLEAR     40  29  64 W5        29.88R
ST SIMONS      PTCLDY    44  35  70 W8        29.86R
FT STEWART     CLEAR     40  31  72 W9        29.82S WCI  33
ALBANY         CLEAR     40  23  50 W9        29.95R WCI  34
HUNTER AFB     CLEAR     37  34  89 W10       29.80S WCI  30
MOODY AFB      CLEAR     43  23  44 W13G23    29.90S
BRUNSWICK      CLEAR     41  36  81 W9        29.87S


CITY           SKY/WX    TMP DP  RH WIND       PRES   REMARKS
MOULTRIE*      CLEAR     41  23  48 W8G16     29.94R
VIDALIA*       PTCLDY    41  28  60 NW7       29.85S
WAYCROSS*      CLEAR     44  32  63 W8        29.89S
DOUGLAS*       CLEAR     41  30  65 W5        29.90S
$$



USA.gov is the U.S. government's official web portal to all federal, state and local government web resources and services.